CE-SAT IIB (46818 NORAD) Tracking and Keplerian Element Data

This shows tracking and keplerian element data for the satellite.

Feedback or suggestion? Click here.




ElementValue
Catalog46818
NameCE-SAT IIB
Epoch Orbit1369
Epoch Day27.24419051
Epoch Year2021
RAAN92.6582
Inclination97.489
Eccentricity0.0014206
Argument of Perigee359.6289
Mean Anonmoly70.8468
Mean Motion15.16861339
Decay Rate4.18E-06
L11 46818U 20077F 21027.24419051 .00000418 00000-0 24618-4 0 9999
L22 46818 97.4890 92.6582 0014206 359.6289 70.8468 15.16861339 13698

Live tracking and technical data element details for CE-SAT IIB (NORAD 46818). CE-SAT IIB can be tracked NOW for your location showing map with azimuth and elevation plus other details from your city location.

Track the satellite on the map from your city or location and see movement details for azimuth, elevation, latitude, longitude, range, height, and movement on the map or in text.







IsCatalogInMostPopularTable: catalog: 46818, numindb: 43
Update: records affected: 1



GetName: 46818 CE-SAT IIB

Hit Count: updated at: Thu, 28 Jan 2021 11:35:21 GMT